WTB35Y TNCM-MDSD

Flight info

Callsign WTB35Y
Flight time 1h 19m
Altitude 36000
Route MODOR2 GOUDA L577 ANTEX/N0332F180 L577 GOSUB GOSUB2G
Aircraft A20N/M-SDE2E3FGHIRWXY/LB1

Departure

Time 2026-05-04 18:34
Airport Princess Juliana International Airport (TNCM)

Arrival

Time 2026-05-04 19:53
Airport Las Américas International Airport (MDSD)
Time Latitude Longitude Altitude Speed Heading
2026-05-04 17:43 18.04323 -63.11430 23 ft 0 kts 351°
2026-05-04 18:21 18.04322 -63.11430 23 ft 0 kts 352°
2026-05-04 18:21 18.04311 -63.11429 23 ft 2 kts 351°
2026-05-04 18:21 18.04296 -63.11426 22 ft 2 kts 352°
2026-05-04 18:22 18.04281 -63.11424 22 ft 2 kts 351°
2026-05-04 18:22 18.04266 -63.11422 21 ft 2 kts 352°
2026-05-04 18:22 18.04257 -63.11420 21 ft 2 kts 345°
2026-05-04 18:22 18.04244 -63.11412 21 ft 2 kts 313°
2026-05-04 18:23 18.04236 -63.11399 21 ft 2 kts 285°
2026-05-04 18:23 18.04235 -63.11387 21 ft 0 kts 264°
2026-05-04 18:23 18.04236 -63.11379 21 ft 0 kts 261°
2026-05-04 18:25 18.04236 -63.11380 21 ft 1 kts 261°
2026-05-04 18:25 18.04228 -63.11431 21 ft 8 kts 261°
2026-05-04 18:25 18.04207 -63.11491 22 ft 10 kts 236°
2026-05-04 18:25 18.04160 -63.11553 23 ft 10 kts 232°
2026-05-04 18:26 18.04114 -63.11615 24 ft 10 kts 232°
2026-05-04 18:26 18.04070 -63.11679 25 ft 10 kts 241°
2026-05-04 18:26 18.04055 -63.11756 25 ft 11 kts 261°
2026-05-04 18:26 18.04043 -63.11842 25 ft 12 kts 262°
2026-05-04 18:27 18.04040 -63.11863 25 ft 0 kts 258°
2026-05-04 18:30 18.04033 -63.11887 26 ft 10 kts 251°
2026-05-04 18:30 18.03986 -63.11958 25 ft 12 kts 214°
2026-05-04 18:31 18.03946 -63.11923 25 ft 7 kts 82°
2026-05-04 18:31 18.03946 -63.11920 25 ft 0 kts 82°
2026-05-04 18:33 18.03956 -63.11852 25 ft 37 kts 82°
2026-05-04 18:33 18.04030 -63.11329 19 ft 105 kts 81°
2026-05-04 18:33 18.04167 -63.10357 43 ft 156 kts 83°
2026-05-04 18:33 18.04092 -63.09227 566 ft 157 kts 121°
2026-05-04 18:34 18.03150 -63.08637 1030 ft 178 kts 164°
2026-05-04 18:34 18.01822 -63.08305 1242 ft 207 kts 154°
2026-05-04 18:34 18.00454 -63.07776 1816 ft 222 kts 160°
2026-05-04 18:34 17.98867 -63.07411 2405 ft 238 kts 165°
2026-05-04 18:35 17.97190 -63.07082 2995 ft 254 kts 165°
2026-05-04 18:35 17.95437 -63.06803 3767 ft 264 kts 175°
2026-05-04 18:35 17.93634 -63.07286 4620 ft 278 kts 209°
2026-05-04 18:35 17.92334 -63.08797 5552 ft 287 kts 243°
2026-05-04 18:36 17.91955 -63.10851 6462 ft 293 kts 271°
2026-05-04 18:36 17.92109 -63.12952 7304 ft 296 kts 274°
2026-05-04 18:36 17.92250 -63.15129 8136 ft 299 kts 273°
2026-05-04 18:36 17.92352 -63.17282 8968 ft 301 kts 272°
2026-05-04 18:37 17.92431 -63.19482 9777 ft 303 kts 272°
2026-05-04 18:37 17.92498 -63.21668 10531 ft 308 kts 271°
2026-05-04 18:37 17.92559 -63.23982 11009 ft 322 kts 271°
2026-05-04 18:37 17.92616 -63.26355 11611 ft 329 kts 271°
2026-05-04 18:38 17.92670 -63.28758 12316 ft 331 kts 271°
2026-05-04 18:38 17.92723 -63.31169 13092 ft 333 kts 270°
2026-05-04 18:38 17.92774 -63.33617 13790 ft 336 kts 271°
2026-05-04 18:38 17.92822 -63.36050 14448 ft 337 kts 271°
2026-05-04 18:39 17.92872 -63.38526 15099 ft 339 kts 271°
2026-05-04 18:39 17.92922 -63.40984 15826 ft 339 kts 271°
2026-05-04 18:39 17.92972 -63.43425 16538 ft 339 kts 271°
2026-05-04 18:39 17.93023 -63.45916 17230 ft 340 kts 272°
2026-05-04 18:40 17.93073 -63.48416 17888 ft 342 kts 272°
2026-05-04 18:40 17.93123 -63.50897 18447 ft 346 kts 272°
2026-05-04 18:40 17.93174 -63.53456 18959 ft 352 kts 271°
2026-05-04 18:40 17.93225 -63.56056 19446 ft 357 kts 271°
2026-05-04 18:41 17.93274 -63.58649 19943 ft 362 kts 271°
2026-05-04 18:41 17.93326 -63.61303 20428 ft 367 kts 272°
2026-05-04 18:41 17.93391 -63.64036 20908 ft 372 kts 273°
2026-05-04 18:41 17.93589 -63.66751 21364 ft 377 kts 276°
2026-05-04 18:42 17.93965 -63.69485 21829 ft 381 kts 281°
2026-05-04 18:42 17.94469 -63.72224 22289 ft 385 kts 282°
2026-05-04 18:42 17.94999 -63.75010 22748 ft 390 kts 282°
2026-05-04 18:42 17.95533 -63.77813 23247 ft 393 kts 282°
2026-05-04 18:43 17.96065 -63.80618 23767 ft 395 kts 282°
2026-05-04 18:43 17.96593 -63.83411 24284 ft 396 kts 282°
2026-05-04 18:43 17.97131 -63.86267 24800 ft 398 kts 282°
2026-05-04 18:43 17.97672 -63.89148 25317 ft 400 kts 282°
2026-05-04 18:44 17.98203 -63.91978 25816 ft 401 kts 282°
2026-05-04 18:44 17.98566 -63.93909 26148 ft 402 kts 283°
2026-05-04 18:44 17.99292 -63.97788 26795 ft 404 kts 283°
2026-05-04 18:44 17.99831 -64.00665 27258 ft 406 kts 283°
2026-05-04 18:45 18.00372 -64.03559 27717 ft 407 kts 283°
2026-05-04 18:45 18.00927 -64.06527 28174 ft 409 kts 283°
2026-05-04 18:45 18.01468 -64.09431 28611 ft 410 kts 283°
2026-05-04 18:45 18.02019 -64.12381 29022 ft 412 kts 283°
2026-05-04 18:46 18.02576 -64.15369 29416 ft 415 kts 283°
2026-05-04 18:46 18.03127 -64.18321 29786 ft 417 kts 283°
2026-05-04 18:46 18.03691 -64.21355 30162 ft 419 kts 283°
2026-05-04 18:46 18.04247 -64.24352 30531 ft 422 kts 283°
2026-05-04 18:47 18.04677 -64.26668 30810 ft 423 kts 283°
2026-05-04 18:47 18.05232 -64.29656 31157 ft 425 kts 283°
2026-05-04 18:47 18.05797 -64.32710 31500 ft 427 kts 283°
2026-05-04 18:47 18.06367 -64.35791 31847 ft 429 kts 282°
2026-05-04 18:48 18.06929 -64.38831 32240 ft 429 kts 282°
2026-05-04 18:48 18.07501 -64.41927 32709 ft 426 kts 282°
2026-05-04 18:48 18.08062 -64.44971 33207 ft 425 kts 282°
2026-05-04 18:48 18.08620 -64.48001 33674 ft 423 kts 282°
2026-05-04 18:49 18.09171 -64.51002 34109 ft 422 kts 282°
2026-05-04 18:49 18.09728 -64.54034 34527 ft 421 kts 282°
2026-05-04 18:49 18.10285 -64.57069 34873 ft 421 kts 282°
2026-05-04 18:49 18.10845 -64.60120 35184 ft 422 kts 282°
2026-05-04 18:50 18.11394 -64.63114 35466 ft 423 kts 282°
2026-05-04 18:50 18.11956 -64.66185 35730 ft 424 kts 282°
2026-05-04 18:50 18.12509 -64.69222 35959 ft 425 kts 282°
2026-05-04 18:51 18.13621 -64.75341 36006 ft 427 kts 282°
2026-05-04 18:51 18.14736 -64.81473 36017 ft 429 kts 282°
2026-05-04 18:52 18.15873 -64.87742 36016 ft 441 kts 282°
2026-05-04 18:52 18.17028 -64.94108 36019 ft 450 kts 282°
2026-05-04 18:53 18.18019 -65.00651 36018 ft 459 kts 278°
2026-05-04 18:53 18.18758 -65.07369 36020 ft 461 kts 278°
2026-05-04 18:54 18.19476 -65.14054 36025 ft 462 kts 277°
2026-05-04 18:54 18.20193 -65.20758 36027 ft 461 kts 278°
2026-05-04 18:55 18.20909 -65.27468 36029 ft 461 kts 277°
2026-05-04 18:55 18.21979 -65.37540 36026 ft 461 kts 277°
2026-05-04 18:56 18.22683 -65.44196 36023 ft 461 kts 277°
2026-05-04 18:56 18.23389 -65.50885 36021 ft 461 kts 277°
2026-05-04 18:57 18.24093 -65.57570 36027 ft 460 kts 277°
2026-05-04 18:57 18.24789 -65.64227 36036 ft 459 kts 277°
2026-05-04 18:58 18.25487 -65.70927 36043 ft 460 kts 277°
2026-05-04 18:58 18.26174 -65.77567 36054 ft 459 kts 277°
2026-05-04 18:59 18.26863 -65.84227 36054 ft 459 kts 277°
2026-05-04 18:59 18.27555 -65.90904 36043 ft 459 kts 277°
2026-05-04 19:00 18.28242 -65.97577 36042 ft 460 kts 277°
2026-05-04 19:00 18.28927 -66.04246 36040 ft 460 kts 277°
2026-05-04 19:01 18.29612 -66.10954 36050 ft 459 kts 277°
2026-05-04 19:01 18.30292 -66.17615 36065 ft 459 kts 277°
2026-05-04 19:02 18.30970 -66.24290 36070 ft 459 kts 277°
2026-05-04 19:02 18.31646 -66.30959 36074 ft 458 kts 277°
2026-05-04 19:03 18.32314 -66.37583 36066 ft 459 kts 277°
2026-05-04 19:03 18.32985 -66.44260 36058 ft 458 kts 277°
2026-05-04 19:04 18.33589 -66.50287 36053 ft 458 kts 277°
2026-05-04 19:04 18.34257 -66.56972 36048 ft 458 kts 277°
2026-05-04 19:05 18.34917 -66.63606 36050 ft 458 kts 277°
2026-05-04 19:05 18.35580 -66.70309 36053 ft 458 kts 276°
2026-05-04 19:06 18.36231 -66.76938 36050 ft 457 kts 276°
2026-05-04 19:06 18.36888 -66.83623 36046 ft 458 kts 276°
2026-05-04 19:07 18.37538 -66.90253 36043 ft 457 kts 276°
2026-05-04 19:07 18.38185 -66.96877 36040 ft 457 kts 276°
2026-05-04 19:08 18.38833 -67.03529 36036 ft 456 kts 276°
2026-05-04 19:08 18.39478 -67.10181 36033 ft 456 kts 276°
2026-05-04 19:09 18.40116 -67.16786 36028 ft 456 kts 276°
2026-05-04 19:09 18.40754 -67.23408 36026 ft 455 kts 276°
2026-05-04 19:10 18.41391 -67.30054 36022 ft 456 kts 276°
2026-05-04 19:10 18.42026 -67.36690 35650 ft 456 kts 276°
2026-05-04 19:11 18.42343 -67.40004 35311 ft 454 kts 276°
2026-05-04 19:11 18.42652 -67.43259 34687 ft 449 kts 276°
2026-05-04 19:11 18.42961 -67.46507 34098 ft 443 kts 276°
2026-05-04 19:11 18.43266 -67.49712 33490 ft 439 kts 276°
2026-05-04 19:12 18.43567 -67.52885 32817 ft 437 kts 275°
2026-05-04 19:12 18.44160 -67.59229 31526 ft 435 kts 276°
2026-05-04 19:12 18.44452 -67.62367 31063 ft 430 kts 276°
2026-05-04 19:13 18.44744 -67.65501 30630 ft 425 kts 276°
2026-05-04 19:13 18.45032 -67.68608 30198 ft 420 kts 276°
2026-05-04 19:13 18.45313 -67.71631 29762 ft 416 kts 276°
2026-05-04 19:13 18.45595 -67.74670 29323 ft 412 kts 277°
2026-05-04 19:14 18.45870 -67.77632 28889 ft 408 kts 277°
2026-05-04 19:14 18.46145 -67.80598 28453 ft 405 kts 277°
2026-05-04 19:14 18.46417 -67.83522 28016 ft 402 kts 277°
2026-05-04 19:14 18.46688 -67.86418 27589 ft 398 kts 276°
2026-05-04 19:15 18.46956 -67.89328 27157 ft 395 kts 276°
2026-05-04 19:15 18.47221 -67.92197 26729 ft 392 kts 276°
2026-05-04 19:15 18.47486 -67.95066 26298 ft 390 kts 276°
2026-05-04 19:15 18.47741 -67.97889 26047 ft 392 kts 275°
2026-05-04 19:16 18.47886 -68.00786 26017 ft 394 kts 271°
2026-05-04 19:16 18.47877 -68.03663 26009 ft 394 kts 269°
2026-05-04 19:16 18.47819 -68.06557 26008 ft 395 kts 269°
2026-05-04 19:16 18.47757 -68.09426 26006 ft 394 kts 269°
2026-05-04 19:17 18.47694 -68.12305 26005 ft 394 kts 269°
2026-05-04 19:17 18.47631 -68.15207 26002 ft 394 kts 269°
2026-05-04 19:17 18.47568 -68.18102 26000 ft 394 kts 269°
2026-05-04 19:17 18.47506 -68.20988 25996 ft 394 kts 269°
2026-05-04 19:18 18.47443 -68.23850 25977 ft 395 kts 269°
2026-05-04 19:18 18.47380 -68.26767 25616 ft 397 kts 269°
2026-05-04 19:18 18.47318 -68.29634 25161 ft 389 kts 269°
2026-05-04 19:18 18.47256 -68.32472 24708 ft 386 kts 269°
2026-05-04 19:19 18.47193 -68.35271 24259 ft 383 kts 268°
2026-05-04 19:19 18.47131 -68.38039 23785 ft 370 kts 268°
2026-05-04 19:19 18.47073 -68.40660 23370 ft 354 kts 268°
2026-05-04 19:19 18.47014 -68.43212 22976 ft 343 kts 268°
2026-05-04 19:20 18.46956 -68.45686 22637 ft 336 kts 268°
2026-05-04 19:20 18.46899 -68.48129 22335 ft 331 kts 267°
2026-05-04 19:20 18.46841 -68.50533 22043 ft 326 kts 267°
2026-05-04 19:20 18.46783 -68.52913 21722 ft 323 kts 268°
2026-05-04 19:21 18.46726 -68.55240 21406 ft 319 kts 268°
2026-05-04 19:21 18.46670 -68.57584 21075 ft 316 kts 268°
2026-05-04 19:21 18.46615 -68.59867 20758 ft 312 kts 268°
2026-05-04 19:21 18.46560 -68.62154 20437 ft 309 kts 268°
2026-05-04 19:22 18.46505 -68.64417 20097 ft 307 kts 268°
2026-05-04 19:22 18.46452 -68.66576 19773 ft 305 kts 268°
2026-05-04 19:22 18.46398 -68.68807 19442 ft 303 kts 268°
2026-05-04 19:22 18.46344 -68.71005 19102 ft 300 kts 268°
2026-05-04 19:23 18.46291 -68.73193 18770 ft 297 kts 268°
2026-05-04 19:23 18.46238 -68.75353 18442 ft 295 kts 269°
2026-05-04 19:23 18.46185 -68.77519 18285 ft 289 kts 269°
2026-05-04 19:23 18.46131 -68.79684 18190 ft 293 kts 268°
2026-05-04 19:24 18.46063 -68.81830 17955 ft 291 kts 268°
2026-05-04 19:24 18.45990 -68.83944 17702 ft 288 kts 268°
2026-05-04 19:24 18.45915 -68.86070 17446 ft 287 kts 268°
2026-05-04 19:24 18.45840 -68.88184 17177 ft 285 kts 268°
2026-05-04 19:25 18.45766 -68.90281 16829 ft 285 kts 268°
2026-05-04 19:25 18.45693 -68.92368 16463 ft 284 kts 268°
2026-05-04 19:25 18.45621 -68.94427 16077 ft 284 kts 268°
2026-05-04 19:25 18.45539 -68.96515 15655 ft 284 kts 268°
2026-05-04 19:26 18.45471 -68.98583 15277 ft 284 kts 268°
2026-05-04 19:26 18.45400 -69.00664 14942 ft 283 kts 268°
2026-05-04 19:26 18.45328 -69.02728 14522 ft 285 kts 267°
2026-05-04 19:26 18.45006 -69.04785 14137 ft 285 kts 253°
2026-05-04 19:27 18.44323 -69.06741 13801 ft 283 kts 249°
2026-05-04 19:27 18.43576 -69.08639 13413 ft 284 kts 248°
2026-05-04 19:27 18.42808 -69.10545 13041 ft 284 kts 248°
2026-05-04 19:27 18.42033 -69.12474 12687 ft 284 kts 248°
2026-05-04 19:28 18.41273 -69.14386 12362 ft 282 kts 248°
2026-05-04 19:28 18.40532 -69.16291 12051 ft 280 kts 248°
2026-05-04 19:28 18.39808 -69.18178 11730 ft 279 kts 248°
2026-05-04 19:28 18.39094 -69.20069 11401 ft 277 kts 248°
2026-05-04 19:29 18.38395 -69.21953 11060 ft 276 kts 248°
2026-05-04 19:29 18.37728 -69.23838 10745 ft 275 kts 253°
2026-05-04 19:29 18.37683 -69.25829 10535 ft 275 kts 285°
2026-05-04 19:29 18.38355 -69.27738 10392 ft 278 kts 292°
2026-05-04 19:30 18.39134 -69.29621 10179 ft 279 kts 292°
2026-05-04 19:30 18.39874 -69.31499 9901 ft 279 kts 291°
2026-05-04 19:30 18.40573 -69.33403 9608 ft 278 kts 289°
2026-05-04 19:30 18.41241 -69.35313 9298 ft 277 kts 289°
2026-05-04 19:31 18.41894 -69.37231 9024 ft 273 kts 288°
2026-05-04 19:31 18.42519 -69.39086 8772 ft 269 kts 288°
2026-05-04 19:31 18.43137 -69.40930 8681 ft 262 kts 288°
2026-05-04 19:31 18.43743 -69.42725 8622 ft 263 kts 290°
2026-05-04 19:32 18.44671 -69.44377 8514 ft 264 kts 312°
2026-05-04 19:32 18.46047 -69.45663 8242 ft 263 kts 322°
2026-05-04 19:32 18.47495 -69.46837 7979 ft 263 kts 322°
2026-05-04 19:32 18.48959 -69.48020 7728 ft 260 kts 322°
2026-05-04 19:33 18.50368 -69.49175 7491 ft 255 kts 322°
2026-05-04 19:33 18.51757 -69.50329 7234 ft 252 kts 322°
2026-05-04 19:33 18.53135 -69.51482 6943 ft 251 kts 322°
2026-05-04 19:33 18.54514 -69.52642 6651 ft 250 kts 321°
2026-05-04 19:34 18.55862 -69.53779 6358 ft 250 kts 321°
2026-05-04 19:34 18.57225 -69.54930 6087 ft 250 kts 321°
2026-05-04 19:34 18.58594 -69.56089 5824 ft 250 kts 321°
2026-05-04 19:34 18.59949 -69.57233 5594 ft 247 kts 321°
2026-05-04 19:35 18.61280 -69.58359 5406 ft 242 kts 321°
2026-05-04 19:35 18.62586 -69.59462 5177 ft 238 kts 321°
2026-05-04 19:35 18.62837 -69.59674 5132 ft 237 kts 321°
2026-05-04 19:35 18.63340 -69.60100 5046 ft 235 kts 321°
2026-05-04 19:36 18.64610 -69.61173 4822 ft 232 kts 321°
2026-05-04 19:36 18.65654 -69.62418 4588 ft 226 kts 291°
2026-05-04 19:36 18.65904 -69.63978 4329 ft 217 kts 257°
2026-05-04 19:36 18.65362 -69.65443 4017 ft 210 kts 231°
2026-05-04 19:37 18.64523 -69.66666 3810 ft 203 kts 229°
2026-05-04 19:37 18.63708 -69.67850 3610 ft 195 kts 230°
2026-05-04 19:37 18.62934 -69.69001 3373 ft 189 kts 230°
2026-05-04 19:37 18.62198 -69.70114 3159 ft 182 kts 230°
2026-05-04 19:38 18.61493 -69.71189 2993 ft 178 kts 230°
2026-05-04 19:38 18.60748 -69.72244 2916 ft 178 kts 218°
2026-05-04 19:38 18.59703 -69.72824 2790 ft 168 kts 186°
2026-05-04 19:38 18.58553 -69.72778 2681 ft 164 kts 163°
2026-05-04 19:39 18.57480 -69.72373 2573 ft 163 kts 158°
2026-05-04 19:39 18.56344 -69.72333 2414 ft 168 kts 188°
2026-05-04 19:39 18.55227 -69.72296 2185 ft 160 kts 152°
2026-05-04 19:39 18.54327 -69.71664 2025 ft 148 kts 145°
2026-05-04 19:40 18.53477 -69.71104 1862 ft 141 kts 150°
2026-05-04 19:40 18.52572 -69.70734 1721 ft 141 kts 161°
2026-05-04 19:40 18.51652 -69.70351 1646 ft 141 kts 155°
2026-05-04 19:40 18.50738 -69.69974 1590 ft 137 kts 158°
2026-05-04 19:41 18.49866 -69.69582 1231 ft 135 kts 153°
2026-05-04 19:41 18.49030 -69.69176 971 ft 131 kts 155°
2026-05-04 19:41 18.48179 -69.68806 765 ft 131 kts 158°
2026-05-04 19:41 18.47274 -69.68454 1083 ft 144 kts 159°
2026-05-04 19:42 18.46328 -69.68140 1751 ft 145 kts 161°
2026-05-04 19:42 18.45329 -69.67819 2127 ft 158 kts 162°
2026-05-04 19:42 18.44177 -69.67804 2426 ft 179 kts 196°
2026-05-04 19:42 18.43169 -69.68673 2720 ft 205 kts 235°
2026-05-04 19:43 18.42749 -69.70219 2946 ft 234 kts 261°
2026-05-04 19:43 18.42684 -69.71950 2873 ft 235 kts 267°
2026-05-04 19:43 18.42690 -69.73686 2914 ft 236 kts 268°
2026-05-04 19:43 18.42708 -69.75410 2934 ft 236 kts 268°
2026-05-04 19:44 18.42727 -69.77131 2941 ft 237 kts 268°
2026-05-04 19:44 18.42757 -69.78873 2947 ft 237 kts 272°
2026-05-04 19:44 18.43217 -69.80512 2937 ft 238 kts 303°
2026-05-04 19:44 18.44447 -69.81683 2952 ft 240 kts 336°
2026-05-04 19:45 18.46037 -69.82296 2967 ft 243 kts 346°
2026-05-04 19:45 18.47659 -69.82760 2960 ft 243 kts 347°
2026-05-04 19:45 18.49305 -69.83196 2957 ft 243 kts 348°
2026-05-04 19:45 18.50984 -69.83637 2951 ft 244 kts 348°
2026-05-04 19:46 18.52632 -69.84068 2952 ft 244 kts 348°
2026-05-04 19:46 18.54295 -69.84506 2950 ft 244 kts 348°
2026-05-04 19:46 18.55937 -69.84938 2949 ft 244 kts 349°
2026-05-04 19:46 18.57602 -69.85080 2924 ft 231 kts 15°
2026-05-04 19:47 18.58947 -69.84390 2915 ft 205 kts 51°
2026-05-04 19:47 18.59668 -69.83154 2951 ft 197 kts 73°
2026-05-04 19:47 18.60122 -69.81786 2951 ft 197 kts 77°
2026-05-04 19:47 18.60521 -69.80393 2949 ft 198 kts 78°
2026-05-04 19:48 18.60906 -69.79007 3013 ft 197 kts 78°
2026-05-04 19:48 18.61103 -69.77587 2991 ft 193 kts 101°
2026-05-04 19:48 18.60486 -69.76377 2960 ft 188 kts 139°
2026-05-04 19:48 18.59328 -69.75706 2970 ft 190 kts 155°
2026-05-04 19:49 18.58092 -69.75201 2958 ft 187 kts 158°
2026-05-04 19:49 18.56925 -69.74751 2927 ft 168 kts 157°
2026-05-04 19:49 18.55980 -69.74181 2901 ft 146 kts 135°
2026-05-04 19:49 18.55326 -69.73395 2767 ft 138 kts 130°
2026-05-04 19:50 18.54682 -69.72658 2786 ft 135 kts 136°
2026-05-04 19:50 18.53953 -69.72026 2763 ft 136 kts 143°
2026-05-04 19:50 18.53172 -69.71475 2500 ft 135 kts 143°
2026-05-04 19:50 18.52424 -69.70940 2224 ft 133 kts 145°
2026-05-04 19:51 18.51625 -69.70425 1832 ft 138 kts 149°
2026-05-04 19:51 18.50764 -69.69943 1379 ft 139 kts 152°
2026-05-04 19:51 18.49925 -69.69516 1088 ft 132 kts 155°
2026-05-04 19:51 18.49086 -69.69143 973 ft 130 kts 157°
2026-05-04 19:52 18.48224 -69.68810 876 ft 131 kts 159°
2026-05-04 19:52 18.47354 -69.68497 681 ft 131 kts 160°
2026-05-04 19:52 18.46487 -69.68193 502 ft 130 kts 161°
2026-05-04 19:52 18.45631 -69.67879 334 ft 129 kts 160°
2026-05-04 19:53 18.44786 -69.67560 182 ft 129 kts 161°
2026-05-04 19:53 18.43933 -69.67248 63 ft 125 kts 161°
2026-05-04 19:53 18.43232 -69.66993 65 ft 84 kts 161°
2026-05-04 19:53 18.42947 -69.66952 67 ft 22 kts 243°
2026-05-04 19:54 18.42938 -69.67000 65 ft 0 kts 269°
2026-05-04 19:54 18.42941 -69.67047 64 ft 11 kts 275°
2026-05-04 19:54 18.42950 -69.67143 62 ft 14 kts 276°
2026-05-04 19:54 18.42959 -69.67236 59 ft 10 kts 276°
2026-05-04 19:55 18.42961 -69.67261 58 ft 0 kts 276°
2026-05-04 19:55 18.42977 -69.67369 55 ft 20 kts 289°
2026-05-04 19:55 18.43089 -69.67448 54 ft 19 kts 340°
2026-05-04 19:56 18.43202 -69.67493 53 ft 13 kts 338°
2026-05-04 19:56 18.43237 -69.67527 52 ft 7 kts 263°
2026-05-04 19:56 18.43212 -69.67590 51 ft 10 kts 251°
2026-05-04 19:56 18.43206 -69.67609 51 ft 0 kts 250°